• In Netherlands
  • List of Countries
  • For 7 days
  • Water Temperature
  • Satellite Maps
  • Weather Map
  • Weather Widgets
  • user-avatar
    Login

    Hourly Weather Konstantyna

    Today, 30 April, Sunday

    Time Temperature Precipitation Wind Pressure Humidity
    00:00 +10°C° 0 mm 1 mps 707 mmHg 95%
    01:00 +10°C° 0.1 mm 1 mps 707 mmHg 95%
    02:00 +10°C° 0.1 mm 1 mps 707 mmHg 95%
    03:00 +10°C° 0.1 mm 1 mps 707 mmHg 95%
    04:00 +11°C° 0 mm 1 mps 707 mmHg 90%
    05:00 +13°C° 0 mm 1 mps 707 mmHg 86%
    06:00 +15°C° 0 mm 1 mps 708 mmHg 80%
    07:00 +18°C° 0 mm 1 mps 708 mmHg 69%
    08:00 +21°C° 0 mm 1 mps 709 mmHg 59%
    09:00 +23°C° 0 mm 2 mps 709 mmHg 49%
    10:00 +23°C° 0.2 mm 2 mps 709 mmHg 47%
    11:00 +24°C° 0.2 mm 3 mps 709 mmHg 45%
    12:00 +25°C° 0.2 mm 3 mps 709 mmHg 43%
    13:00 +24°C° 0.2 mm 3 mps 709 mmHg 46%
    14:00 +24°C° 0.2 mm 3 mps 708 mmHg 48%
    15:00 +24°C° 0.2 mm 3 mps 708 mmHg 50%
    16:00 +21°C° 0.1 mm 3 mps 708 mmHg 59%
    17:00 +19°C° 0.1 mm 2 mps 708 mmHg 68%
    18:00 +17°C° 0.1 mm 2 mps 708 mmHg 76%
    19:00 +15°C° 0 mm 2 mps 708 mmHg 82%
    20:00 +13°C° 0 mm 1 mps 709 mmHg 88%
    21:00 +11°C° 0 mm 1 mps 709 mmHg 94%
    22:00 +11°C° 0 mm 1 mps 709 mmHg 94%
    23:00 +11°C° 0 mm 1 mps 709 mmHg 94%

    Tomorrow, 1 May, Monday

    Time Temperature Precipitation Wind Pressure Humidity
    00:00 +11°C° 0 mm 1 mps 709 mmHg 94%
    01:00 +11°C° 0 mm 1 mps 709 mmHg 94%
    02:00 +10°C° 0 mm 1 mps 708 mmHg 94%
    03:00 +10°C° 0 mm 1 mps 708 mmHg 94%
    04:00 +11°C° 0 mm 1 mps 709 mmHg 89%
    05:00 +12°C° 0 mm 0 mps 709 mmHg 84%
    06:00 +14°C° 0 mm 0 mps 710 mmHg 79%
    07:00 +18°C° 0 mm 1 mps 710 mmHg 70%
    08:00 +20°C° 0 mm 1 mps 711 mmHg 61%
    09:00 +22°C° 0 mm 1 mps 711 mmHg 52%
    10:00 +23°C° 0 mm 1 mps 711 mmHg 49%
    11:00 +24°C° 0 mm 2 mps 711 mmHg 46%
    12:00 +25°C° 0 mm 2 mps 711 mmHg 43%
    13:00 +24°C° 0.3 mm 3 mps 711 mmHg 47%
    14:00 +24°C° 0.3 mm 3 mps 711 mmHg 50%
    15:00 +22°C° 0.3 mm 3 mps 711 mmHg 54%
    16:00 +20°C° 0.2 mm 3 mps 711 mmHg 62%
    17:00 +18°C° 0.2 mm 3 mps 711 mmHg 70%
    18:00 +17°C° 0.2 mm 2 mps 711 mmHg 79%
    19:00 +15°C° 0 mm 2 mps 711 mmHg 85%
    20:00 +13°C° 0 mm 1 mps 711 mmHg 90%
    21:00 +11°C° 0 mm 1 mps 711 mmHg 96%
    22:00 +11°C° 0 mm 1 mps 711 mmHg 96%
    23:00 +11°C° 0 mm 1 mps 711 mmHg 96%

    Day after tomorrow, 2 May, Tuesday

    Time Temperature Precipitation Wind Pressure Humidity
    00:00 +10°C° 0 mm 0 mps 711 mmHg 95%
    01:00 +10°C° 0 mm 0 mps 711 mmHg 96%
    02:00 +11°C° 0 mm 1 mps 711 mmHg 96%
    03:00 +11°C° 0 mm 1 mps 710 mmHg 97%
    04:00 +12°C° 0 mm 1 mps 711 mmHg 95%
    05:00 +13°C° 0 mm 1 mps 711 mmHg 92%
    06:00 +13°C° 0 mm 1 mps 711 mmHg 90%
    07:00 +16°C° 0 mm 1 mps 711 mmHg 79%
    08:00 +19°C° 0 mm 1 mps 712 mmHg 69%
    09:00 +22°C° 0 mm 1 mps 712 mmHg 58%
    10:00 +23°C° 0.5 mm 1 mps 712 mmHg 57%
    11:00 +23°C° 0.5 mm 2 mps 712 mmHg 55%
    12:00 +24°C° 0.5 mm 2 mps 712 mmHg 54%
    13:00 +23°C° 0.9 mm 2 mps 711 mmHg 57%
    14:00 +23°C° 0.9 mm 2 mps 711 mmHg 59%
    15:00 +21°C° 0.9 mm 2 mps 711 mmHg 62%
    16:00 +20°C° 0.5 mm 2 mps 711 mmHg 69%
    17:00 +19°C° 0.5 mm 2 mps 711 mmHg 77%
    18:00 +18°C° 0.5 mm 1 mps 711 mmHg 84%
    19:00 +16°C° 0.4 mm 1 mps 711 mmHg 87%
    20:00 +14°C° 0.4 mm 1 mps 711 mmHg 91%
    21:00 +13°C° 0.4 mm 1 mps 711 mmHg 94%
    22:00 +13°C° 0 mm 1 mps 710 mmHg 93%
    23:00 +12°C° 0 mm 1 mps 710 mmHg 93%

    3 May, Wednesday

    Time Temperature Precipitation Wind Pressure Humidity
    00:00 +12°C° 0 mm 1 mps 710 mmHg 92%
    01:00 +12°C° 0 mm 1 mps 710 mmHg 92%
    02:00 +12°C° 0 mm 1 mps 710 mmHg 91%
    03:00 +12°C° 0 mm 1 mps 709 mmHg 91%
    04:00 +13°C° 0.1 mm 1 mps 710 mmHg 88%
    05:00 +15°C° 0.1 mm 1 mps 710 mmHg 84%
    06:00 +16°C° 0.1 mm 1 mps 710 mmHg 81%
    07:00 +19°C° 0 mm 1 mps 711 mmHg 72%
    08:00 +22°C° 0 mm 1 mps 711 mmHg 62%
    09:00 +24°C° 0 mm 2 mps 711 mmHg 53%
    10:00 +25°C° 0.3 mm 2 mps 711 mmHg 50%
    11:00 +26°C° 0.3 mm 2 mps 711 mmHg 47%
    12:00 +27°C° 0.3 mm 2 mps 711 mmHg 44%
    13:00 +27°C° 0.4 mm 3 mps 711 mmHg 44%
    14:00 +27°C° 0.4 mm 3 mps 710 mmHg 44%
    15:00 +27°C° 0.4 mm 3 mps 710 mmHg 45%
    16:00 +24°C° 0.2 mm 2 mps 710 mmHg 55%
    17:00 +21°C° 0.2 mm 2 mps 710 mmHg 64%
    18:00 +20°C° 0.2 mm 1 mps 709 mmHg 74%
    19:00 +19°C° 0 mm 1 mps 709 mmHg 80%
    20:00 +16°C° 0 mm 1 mps 709 mmHg 85%
    21:00 +15°C° 0 mm 1 mps 709 mmHg 91%
    22:00 +15°C° 0.1 mm 1 mps 709 mmHg 89%
    23:00 +15°C° 0.1 mm 1 mps 709 mmHg 87%

    4 May, Thursday

    Time Temperature Precipitation Wind Pressure Humidity
    00:00 +15°C° 0.1 mm 1 mps 709 mmHg 85%
    01:00 +15°C° 0.2 mm 1 mps 708 mmHg 85%
    02:00 +14°C° 0.2 mm 1 mps 708 mmHg 85%
    03:00 +14°C° 0.2 mm 1 mps 708 mmHg 85%
    04:00 +15°C° 0.1 mm 1 mps 708 mmHg 82%
    05:00 +16°C° 0.1 mm 1 mps 708 mmHg 78%
    06:00 +18°C° 0.1 mm 1 mps 708 mmHg 75%
    07:00 +20°C° 0 mm 2 mps 709 mmHg 64%
    08:00 +24°C° 0 mm 2 mps 709 mmHg 53%
    09:00 +27°C° 0 mm 2 mps 710 mmHg 42%
    10:00 +28°C° 0 mm 3 mps 710 mmHg 39%
    11:00 +29°C° 0 mm 3 mps 710 mmHg 36%
    12:00 +30°C° 0 mm 3 mps 709 mmHg 32%
    13:00 +30°C° 0 mm 3 mps 709 mmHg 35%
    14:00 +29°C° 0 mm 3 mps 709 mmHg 38%
    15:00 +29°C° 0 mm 3 mps 708 mmHg 41%
    16:00 +27°C° 0 mm 2 mps 708 mmHg 50%
    17:00 +25°C° 0 mm 2 mps 708 mmHg 60%
    18:00 +23°C° 0 mm 1 mps 708 mmHg 70%
    19:00 +21°C° 0 mm 1 mps 708 mmHg 75%
    20:00 +20°C° 0 mm 1 mps 708 mmHg 80%
    21:00 +18°C° 0 mm 1 mps 708 mmHg 85%
    22:00 +18°C° 0 mm 1 mps 708 mmHg 82%
    23:00 +18°C° 0 mm 1 mps 708 mmHg 80%

    5 May, Friday

    Time Temperature Precipitation Wind Pressure Humidity
    00:00 +17°C° 0 mm 2 mps 707 mmHg 77%
    01:00 +18°C° 0 mm 2 mps 707 mmHg 73%
    02:00 +18°C° 0 mm 2 mps 707 mmHg 69%
    03:00 +18°C° 0 mm 2 mps 707 mmHg 64%
    04:00 +19°C° 0 mm 2 mps 707 mmHg 61%
    05:00 +19°C° 0 mm 2 mps 707 mmHg 58%
    06:00 +20°C° 0 mm 2 mps 708 mmHg 54%
    07:00 +24°C° 0 mm 2 mps 708 mmHg 46%
    08:00 +27°C° 0 mm 3 mps 709 mmHg 37%
    09:00 +31°C° 0 mm 3 mps 709 mmHg 28%
    10:00 +33°C° 0 mm 3 mps 709 mmHg 25%
    11:00 +34°C° 0 mm 3 mps 709 mmHg 22%
    12:00 +36°C° 0 mm 3 mps 709 mmHg 19%
    13:00 +35°C° 0 mm 3 mps 709 mmHg 22%
    14:00 +34°C° 0 mm 3 mps 708 mmHg 24%
    15:00 +34°C° 0 mm 2 mps 708 mmHg 26%
    16:00 +30°C° 0 mm 2 mps 708 mmHg 33%
    17:00 +28°C° 0 mm 2 mps 708 mmHg 39%
    18:00 +26°C° 0 mm 1 mps 707 mmHg 46%
    19:00 +24°C° 0 mm 2 mps 707 mmHg 48%
    20:00 +21°C° 0 mm 2 mps 708 mmHg 51%
    21:00 +20°C° 0 mm 2 mps 708 mmHg 53%
    22:00 +20°C° 0 mm 2 mps 707 mmHg 50%
    23:00 +20°C° 0 mm 2 mps 707 mmHg 48%
    Show more